Regional Weather Roundup
Issued by NWS

Home | Current Version | Previous Version | Text Only | Print | Product List | Glossary On
Versions: 1 2 3 4 5 6 7 8 9 10 11 12 13 14 15 16 17 18 19 20 21 22 23 24 25 26 27 28 29 30 31 32 33 34 35 36 37 38 39 40 41 42 43 44 45 46 47 48 49 50
315
ASUS46 KSEW 240310
RWRWA

WASHINGTON REGIONAL WEATHER ROUNDUP
NATIONAL WEATHER SERVICE SEATTLE WA
800 PM PDT SAT SEP 23 2017

NOTE:"FAIR" INDICATES FEW OR NO CLOUDS BELOW 12,000 FEET WITH NO
SIGNIFICANT WEATHER AND/OR OBSTRUCTIONS TO VISIBILITY.

WAZ507-509-555>559-240400-
SEATTLE, TACOMA, EVERETT, AND VICINITY

CITY           SKY/WX    TMP DP  RH WIND       PRES   REMARKS
EVERETT        CLOUDY    61  48  62 NW3       30.11S
BOEING FIELD   PTCLDY    63  49  60 CALM      30.09R
RENTON         PTCLDY    63  52  67 CALM      30.08S
SEATAC AIRPORT PTCLDY    62  49  62 N6        30.10R
JBLM-MCCHORD   CLEAR     56  50  79 CALM      30.09R
PUYALLUP       FAIR      55  48  76 CALM      30.10R
BREMERTON      CLEAR     55  50  83 CALM      30.11R
JBLM-FT LEWIS  CLEAR     59  50  72 CALM      30.09R
TACOMA NARROWS PTCLDY    61  47  59 CALM      30.09S
$$

WAZ001-503-506-510-514-515-240400-
NORTH INTERIOR

CITY           SKY/WX    TMP DP  RH WIND       PRES   REMARKS
BELLINGHAM     CLEAR     55  50  83 CALM      30.09R
FRIDAY HARBOR  CLEAR     51  44  77 CALM      30.11S
EASTSOUND      CLOUDY    55  48  76 CALM      30.10S
PORT ANGELES   PTCLDY    55  52  89 NW3       30.13R
EDIZ HOOK      MOCLDY    55  51  86 W6        30.12S
PORT TOWNSEND  FAIR      57  46  67 VRB5      30.12R
NAS WHIDBEY    MOCLDY    54  47  77 W8        30.15R
ARLINGTON      PTCLDY    61  47  59 NW5       30.10R
BURLINGTON     CLEAR     55  48  76 CALM      30.10R
$$

WAZ020-022-039-040-504-511-512-240400-
SOUTHWEST INTERIOR

CITY           SKY/WX    TMP DP  RH WIND       PRES   REMARKS
SHELTON        CLEAR     60  52  74 SW8       30.08R
OLYMPIA        CLEAR     62  51  67 NW5       30.09R
CHEHALIS       FAIR      61  54  77 CALM      30.10R
KELSO          CLEAR     62  52  69 W3        30.09R
VANCOUVER      CLEAR     60  49  66 CALM      30.06S
SCAPPOOSE, OR  CLEAR     60  50  69 NW3       30.07R
PORTLAND, OR   PTCLDY    64  51  62 CALM      30.07S
$$

WAZ021-516-517-240400-
WASHINGTON COAST

CITY           SKY/WX    TMP DP  RH WIND       PRES   REMARKS
FORKS          CLEAR     55  51  86 CALM      30.11S
HOQUIAM        CLEAR     58  53  84 W3        30.12R
ASTORIA, OR    CLEAR     55  51  86 SW5       30.10R
$$

WAZ019-023-024-040-567>569-240400-
CASCADE MOUNTAINS AND COLUMBIA GORGE

CITY           SKY/WX    TMP DP  RH WIND       PRES   REMARKS
STAMPEDE PASS  NOT AVBL
TROUTDALE, OR  CLEAR     58  47  66 CALM      30.07R
HOOD RIVER, OR NOT AVBL
THE DALLES, OR CLEAR     65  47  52 NW7       30.04R
$$

WAZ026-027-041>044-520-521-240400-
EAST SLOPES

CITY           SKY/WX    TMP DP  RH WIND       PRES   REMARKS
OMAK           CLOUDY    60  40  47 N6        30.05R
WENATCHEE      PTCLDY    60  41  49 E8        30.04R
ELLENSBURG     CLOUDY    63  41  44 N10       30.06R
YAKIMA         CLOUDY    66  39  37 CALM      30.05R
SUNNYSIDE ARPT CLOUDY    53  46  76 CALM      30.05R
YAKIMA TC      MOCLDY    62  36  37 S3        30.03R
$$

WAZ028-034-035-240400-
COLUMBIA BASIN

CITY           SKY/WX    TMP DP  RH WIND       PRES   REMARKS
EPHRATA        CLOUDY    58  36  43 CALM      30.05R
MOSES LAKE     CLOUDY    62  39  42 S6        30.05S
PASCO          CLEAR     61  42  49 E5        30.05R
RICHLAND ARPT  CLEAR     62  44  50 E3        30.05R
HERMISTON, OR  CLEAR     55  42  61 SE3       30.04R
$$

WAZ036>038-240400-
NORTHEAST WASHINGTON

CITY           SKY/WX    TMP DP  RH WIND       PRES   REMARKS
SPOKANE GEIGER CLOUDY    56  41  57 S6        30.09R
SPOKANE FELTS  CLOUDY    56  44  64 N3        30.08R
FAIRCHILD AFB  CLOUDY    54  42  63 S5        30.08R
COEURDALENE,ID CLOUDY    54  44  69 SE5       30.10R
DEER PARK      CLOUDY    53  44  71 CALM      30.08R
$$

WAZ029>033-240400-
SOUTHEAST WASHINGTON

CITY           SKY/WX    TMP DP  RH WIND       PRES   REMARKS
PULLMAN        PTCLDY    50  39  66 CALM      30.12R
LEWISTON, ID   CLOUDY    56  40  55 E5        30.09R
WALLA WALLA    CLEAR     58  42  55 E7        30.06R
PENDLETON, OR  CLEAR     56  37  49 NE8       30.06R
$$




USA.gov is the U.S. government's official web portal to all federal, state and local government web resources and services.